Time,TemperatureF,DewpointF,PressureIn,WindDirection,WindDirectionDegrees,WindSpeedMPH,WindSpeedGustMPH,Humidity,HourlyPrecipIn,Conditions,Clouds,dailyrainin,SoftwareType,DateUTC
2013-07-09 00:00:00,68.0,-99.9,-100.00,NNW,330,2.0,-999.0,-999,-99.99,,,-99.99,,2013-07-09 07:00:00,
2013-07-09 01:00:00,66.0,-99.9,-100.00,NW,307,2.0,-999.0,-999,-99.99,,,-99.99,,2013-07-09 08:00:00,
2013-07-09 02:00:00,64.0,-99.9,-100.00,NNW,328,3.0,-999.0,-999,-99.99,,,-99.99,,2013-07-09 09:00:00,
2013-07-09 02:53:00,64.0,-99.9,-100.00,NNW,328,3.0,-999.0,-999,-99.99,,,-99.99,,2013-07-09 09:53:00,
2013-07-09 03:00:00,63.0,-99.9,-100.00,NW,313,3.0,-999.0,-999,-99.99,,,-99.99,,2013-07-09 10:00:00,
2013-07-09 04:00:00,62.0,-99.9,-100.00,NNW,335,3.0,-999.0,-999,-99.99,,,-99.99,,2013-07-09 11:00:00,
2013-07-09 04:53:00,62.0,-99.9,-100.00,NNW,335,3.0,-999.0,-999,-99.99,,,-99.99,,2013-07-09 11:53:00,
2013-07-09 07:00:00,62.0,-99.9,-100.00,NW,310,5.0,-999.0,-999,-99.99,,,-99.99,,2013-07-09 14:00:00,
2013-07-09 08:00:00,64.0,-99.9,-100.00,NW,320,6.0,-999.0,-999,-99.99,,,-99.99,,2013-07-09 15:00:00,
2013-07-09 09:00:00,66.0,-99.9,-100.00,North,2,5.0,-999.0,-999,-99.99,,,-99.99,,2013-07-09 16:00:00,
2013-07-09 10:00:00,69.0,-99.9,-100.00,NW,321,6.0,-999.0,-999,-99.99,,,-99.99,,2013-07-09 17:00:00,
2013-07-09 11:00:00,71.0,-99.9,-100.00,NW,318,7.0,-999.0,-999,-99.99,,,-99.99,,2013-07-09 18:00:00,
2013-07-09 12:00:00,74.0,-99.9,-100.00,NW,325,7.0,-999.0,-999,-99.99,,,-99.99,,2013-07-09 19:00:00,
2013-07-09 13:00:00,78.0,-99.9,-100.00,NW,306,6.0,-999.0,-999,-99.99,,,-99.99,,2013-07-09 20:00:00,
2013-07-09 14:00:00,80.0,-99.9,-100.00,NW,306,6.0,-999.0,-999,-99.99,,,-99.99,,2013-07-09 21:00:00,
2013-07-09 14:52:00,80.0,-99.9,-100.00,NW,306,6.0,-999.0,-999,-99.99,,,-99.99,,2013-07-09 21:52:00,
2013-07-09 15:00:00,81.0,-99.9,-100.00,NW,304,7.0,-999.0,-999,-99.99,,,-99.99,,2013-07-09 22:00:00,
2013-07-09 15:53:00,81.0,-99.9,-100.00,NW,304,7.0,-999.0,-999,-99.99,,,-99.99,,2013-07-09 22:53:00,
2013-07-09 16:00:00,82.0,-99.9,-100.00,WNW,298,6.0,-999.0,-999,-99.99,,,-99.99,,2013-07-09 23:00:00,
2013-07-09 16:53:00,82.0,-99.9,-100.00,WNW,298,6.0,-999.0,-999,-99.99,,,-99.99,,2013-07-09 23:53:00,
2013-07-09 17:00:00,82.0,-99.9,-100.00,WNW,300,7.0,-999.0,-999,-99.99,,,-99.99,,2013-07-10 00:00:00,
2013-07-09 18:00:00,82.0,-99.9,-100.00,NW,306,8.0,-999.0,-999,-99.99,,,-99.99,,2013-07-10 01:00:00,
2013-07-09 19:00:00,78.0,-99.9,-100.00,NW,312,12.0,-999.0,-999,-99.99,,,-99.99,,2013-07-10 02:00:00,
2013-07-09 20:00:00,77.0,-99.9,-100.00,NW,309,7.0,-999.0,-999,-99.99,,,-99.99,,2013-07-10 03:00:00,
2013-07-09 20:52:00,77.0,-99.9,-100.00,NW,309,7.0,-999.0,-999,-99.99,,,-99.99,,2013-07-10 03:52:00,
2013-07-09 21:00:00,77.0,-99.9,-100.00,North,358,5.0,-999.0,-999,-99.99,,,-99.99,,2013-07-10 04:00:00,
2013-07-09 22:00:00,75.0,-99.9,-100.00,NNE,16,6.0,-999.0,-999,-99.99,,,-99.99,,2013-07-10 05:00:00,
2013-07-09 23:00:00,71.0,-99.9,-100.00,NNE,18,6.0,-999.0,-999,-99.99,,,-99.99,,2013-07-10 06:00:00,